Location: Équennes
(49.7375°N, 1.9622°E)
Time: 19:12:29
(UTC+00:00)

Cosmos 2278 - Pass Details

Date: 29 September 2023
Orbit: 838 x 853 km, 71.1° (Epoch: 08 December)

Event Time Altitude Azimuth Distance (km) Brightness Sun altitude
Rises 19:28:07 0° 277° (W) 3,407 8.4 -18.7°
Reaches altitude 10° 19:32:00 10° 304° (WNW) 2,478 7.3 -19.3°
Maximum altitude 19:34:44 13° 333° (NNW) 2,240 6.5 -19.7°
Drops below altitude 10° 19:37:28 10° 2° (N) 2,487 6.4 -20.2°
Sets 19:41:24 0° 28° (NNE) 3,428 6.8 -20.7°
